SKIB

Details ICAO SKIB (IBE)
Name PERALES
Region Colombia
Timezone America/Bogota (UTC-5.0)
Plans Departing 12
Arriving 16
Stats Elevation 2,999 ft / 914 m (AMSL)
Location 4.421609° -75.133300°
Runways 1
Magnetic Variation 6.627° W
Sunrise 2018-05-20 10:48:29 UTC / 2018-05-20 05:48:29 Local
Sunset 2018-05-20 23:08:30 UTC / 2018-05-20 18:08:30 Local
Advertisement - Login to hide

Runways

ID Width Length Bearing (true) Bearing (mag) Surface Threshold Offset Overrun Length
14 98 ft / 30 m 5,898 ft / 1,798 m 131.34° 137.97° Asphalt 0 ft / 0 m 0 ft / 0 m
32 98 ft / 30 m 5,898 ft / 1,798 m 311.34° 317.97° Asphalt 0 ft / 0 m 0 ft / 0 m

Map

Weather


0- 5 10 15 20 25 30 35+ Temperature / ° C

Clouds and Precipitation
Forecast for 2018-05-20 12:00 UTC. Updated 2 hours ago

Ground ~20,000 ft ~40,000 ft Winds

METAR

SKIB 201300Z 32003KT 2000 -RA BR BKN003 BKN080 20/20 A3013

TAF

Not found

Frequencies

Tower 118.30 MHz TWR
Approach 119.50 MHz BOGOTA APP
Warning: Do not use this data for real-world aviation or navigation. No guarantee of current accuracy is given.